Regional Weather Roundup
Issued by NWS Portland, ME

Home | Current Version | Previous Version | Text Only | Print | Product List | Glossary On
Versions: 1 2 3 4 5 6 7 8 9 10 11 12 13 14 15 16 17 18 19 20 21 22 23 24 25 26 27 28 29 30 31 32 33 34 35 36 37 38 39 40 41 42 43 44 45 46 47 48 49 50
000
ASUS41 KGYX 281810
RWRGYX
WEATHER ROUNDUP FOR MAINE AND NEW HAMPSHIRE
NATIONAL WEATHER SERVICE GRAY ME
200 PM EDT WED SEP 28 2016

MEZ002-005-006-010-012-015-018-020-021-024-026-027-029-281900-
MAINE

CITY           SKY/WX    TMP DP  RH WIND       PRES   REMARKS
PORTLAND       CLOUDY    57  47  69 NE10      30.31S
6HR MIN TEMP:  53; 6HR MAX TEMP:  57;

SANFORD        CLOUDY    54  48  80 NE12      30.30F
WISCASSET      CLOUDY    63  48  58 VRB3      30.31S
6HR MIN TEMP:  53; 6HR MAX TEMP:  63;

ROCKLAND       SUNNY     62  49  62 NE13      30.30R
FRYEBURG       CLOUDY    56  48  74 VRB6      30.32S
6HR MIN TEMP:  51; 6HR MAX TEMP:  56;

LEWISTONAUBURN PTSUNNY   59  47  64 NE8       30.30F
AUGUSTA        MOSUNNY   62  46  55 NE8G18    30.30F
6HR MIN TEMP:  49; 6HR MAX TEMP:  62;

WATERVILLE     SUNNY     62  46  55 NE8G16    30.29S
BANGOR         MOSUNNY   64  45  49 NE9       30.32S
6HR MIN TEMP:  50; 6HR MAX TEMP:  64;

GREENVILLE       N/A     57  44  62 NE7       30.32S
6HR MIN TEMP:  44; 6HR MAX TEMP:  57;

MILLINOCKET    MOSUNNY   61  41  47 NE10      30.36F
6HR MIN TEMP:  47; 6HR MAX TEMP:  61;

HOULTON        MOSUNNY   58  42  55 E13G18    30.36F
6HR MIN TEMP:  44; 6HR MAX TEMP:  59;

PRESQUE ISLE   CLOUDY    55  40  56 E8        30.40F
6HR MIN TEMP:  44; 6HR MAX TEMP:  57;

FRENCHVILLE    CLOUDY    52  38  58 NE5       30.41S
6HR MIN TEMP:  42; 6HR MAX TEMP:  52;

CARIBOU        CLOUDY    55  39  54 E6        30.40S
6HR MIN TEMP:  44; 6HR MAX TEMP:  56;

$$

NHZ002-005-008-009-011-012-014-281900-
NEW HAMPSHIRE

CITY           SKY/WX    TMP DP  RH WIND       PRES   REMARKS
PORTSMOUTH     CLOUDY    55  47  76 NE16      30.28S
ROCHESTER      CLOUDY    53  46  77 NE7       30.29S
6HR MIN TEMP:  53; 6HR MAX TEMP:  56;

NASHUA         CLOUDY    56  50  80 E8        30.28S
MANCHESTER     CLOUDY    55  48  77 E6        30.27S
6HR MIN TEMP:  55; 6HR MAX TEMP:  57;

CONCORD        CLOUDY    57  48  72 E8        30.29S
6HR MIN TEMP:  55; 6HR MAX TEMP:  58;

LACONIA          N/A     54  48  80 NE9       30.30R
PLYMOUTH       CLOUDY    58  50  74 E8        30.28S
BERLIN         CLOUDY    62  47  57 N12       30.28F
6HR MIN TEMP:  53; 6HR MAX TEMP:  64;

WHITEFIELD     SUNNY     65  50  58 E9        30.25S
6HR MIN TEMP:  54; 6HR MAX TEMP:  66;

JAFFREY        CLOUDY    54  49  83 CALM      30.27S
6HR MIN TEMP:  53; 6HR MAX TEMP:  56; 6HR PCP: TRACE;

KEENE          CLOUDY    56  51  84 NE5       30.27R
LEBANON        CLOUDY    59  52  77 E6        30.26S
6HR MIN TEMP:  52; 6HR MAX TEMP:  60;

MT WASHINGTON  PTSUNNY   45  37  76 E7          N/A  VSB 1
6HR MIN TEMP:  38; 6HR MAX TEMP:  45;

$$

VTZ005-007-008-281900-
VERMONT

CITY           SKY/WX    TMP DP  RH WIND       PRES   REMARKS
ST JOHNSBURY     N/A     65  51  60 MISG      30.23S
MONTPELIER     MOSUNNY   63  50  62 SW10      30.29S
BURLINGTON     MOSUNNY   69  50  50 E12       30.22S
$$

MAZ007-012-024-CTZ003-RIZ002-NYZ038-NYZ072-281900-
SOUTHERN NEW ENGLAND AND NY

CITY           SKY/WX    TMP DP  RH WIND       PRES   REMARKS
BOSTON         CLOUDY    56  51  84 NE21G26   30.25S
WORCESTER      CLOUDY    53  49  86 NE14G23   30.23F
NANTUCKET      CLOUDY    62  59  90 NE23G30   30.14S FOG
PROVIDENCE     LGT RAIN  60  53  77 NE16G23   30.20S
HARTFORD       CLOUDY    61  50  67 E12       30.21S
ALBANY         PTSUNNY   67  52  58 E10       30.18F
NEW YORK CITY  CLOUDY    69  59  70 E21       30.11F
$$

ANZ081-ANZ082-ANZ150-NHZ014-MEZ023>029-281900-
COASTAL MARINE OBSERVATIONS

STATION/POSITION TIME  TEMP    WIND        PRES    WAVE
                       AIR SEA DIR/SP/G            HT/PER
                 (UTC) (F)     (DEG/KT/KT) (MB)    (FT/S)
MOUNT DESERT ROC 1800   54      30/ 21/ 23 1025.6R
MATINICUS ROCK   1800   54      50/ 20/ 22 1025.2R
ISLE OF SHOALS   1800   54      40/ 25/ 27 1024.3S
JEFFREYS LEDGE   1738      62                N/A     8/ 7
CASHES LEDGE BUO 1750   56 59   50/ 21/ 25 1024.0R   6/ 6
GEORGES BANK BUO 1750   67 63              1018.3F   5/ 7
$$

.............KEY..............
   WCI - WIND CHILL
   TC  - TEMPERATURE IN CELSIUS
   VSB - VISIBILITY IN MILES
   HX  - HEAT INDEX
   FAIR- INDICATES FEW OR NO CLOUDS BELOW 12,000 FT, WITH NO
         SIGNIFICANT WEATHER AND/OR OBSTRUCTIONS TO VISIBILITY.






USA.gov is the U.S. government's official web portal to all federal, state and local government web resources and services.